DW2843 Weather Reports


time (UTC)temp
C
wind
direction
speed
KPH
gust
KPH
rain 1hr
cm
rain 24hr
cm
rain mn
cm
humidity
%
barometer
mb
20260510152004 12 50 9.7 25.7 0.00 0.00 0.00 63 1016.4
20260510151003 12 59 9.7 29.0 0.00 0.00 0.00 64 1016.4
20260510150004 12 58 9.7 30.6 0.00 0.00 0.00 67 1016.6
20260510145003 12 58 9.7 30.6 0.00 0.00 0.00 64 1016.6
20260510144004 12 62 9.7 30.6 0.00 0.00 0.00 65 1016.8
20260510143003 12 54 11.3 29.0 0.00 0.00 0.00 67 1016.9
20260510142004 12 60 9.7 33.8 0.00 0.00 0.00 68 1016.9
20260510141004 12 46 9.7 30.6 0.00 0.00 0.00 66 1017.1
20260510140003 12 52 11.3 30.6 0.00 0.00 0.00 66 1017.2
20260510135004 12 47 9.7 25.7 0.00 0.00 0.00 68 1017.2
20260510134004 12 43 11.3 30.6 0.00 0.00 0.00 67 1017.2
20260510133004 13 44 11.3 29.0 0.00 0.00 0.00 66 1017.2
20260510132003 13 54 11.3 29.0 0.00 0.00 0.00 65 1017.3
20260510131005 12 62 9.7 29.0 0.00 0.00 0.00 69 1017.4
20260510130003 11 50 11.3 29.0 0.00 0.00 0.00 70 1017.4
20260510125005 12 52 11.3 30.6 0.00 0.00 0.00 68 1017.4
20260510124003 11 37 9.7 25.7 0.00 0.00 0.00 70 1017.6
20260510123005 11 41 9.7 25.7 0.00 0.00 0.00 70 1017.7
20260510122004 11 47 11.3 33.8 0.00 0.00 0.00 70 1017.7
20260510121005 12 54 11.3 30.6 0.00 0.00 0.00 71 1017.8
20260510120004 11 52 9.7 24.1 0.00 0.00 0.00 73 1017.9
20260510114005 11 51 14.5 35.4 0.00 0.00 0.00 74 1018.0
20260510113003 11 49 9.7 38.6 0.00 0.00 0.00 76 1018.2
20260510111003 10 41 6.4 24.1 0.00 0.00 0.00 77 1018.4
20260510110004 10 46 6.4 25.7 0.00 0.00 0.00 78 1018.5
20260510105005 11 59 9.7 35.4 0.00 0.00 0.00 76 1018.7
20260510104005 11 49 6.4 29.0 0.00 0.00 0.00 76 1018.6
20260510103005 11 57 9.7 25.7 0.00 0.00 0.00 77 1018.5
20260510102005 11 46 9.7 25.7 0.00 0.00 0.00 77 1018.6
20260510101005 11 57 9.7 30.6 0.00 0.00 0.00 79 1018.7
20260510100004 11 45 6.4 25.7 0.00 0.00 0.00 79 1018.7
20260510095005 10 58 6.4 24.1 0.00 0.00 0.00 81 1018.8
20260510094005 10 53 6.4 30.6 0.00 0.00 0.00 83 1018.9
20260510093004 10 52 6.4 24.1 0.00 0.00 0.00 84 1019.0
20260510092005 10 41 6.4 24.1 0.00 0.00 0.00 84 1019.0
20260510090008 10 50 9.7 30.6 0.00 0.00 0.00 83 1019.0
20260510084005 10 46 9.7 24.1 0.00 0.00 0.00 83 1018.9
20260510083005 10 53 6.4 24.1 0.00 0.00 0.00 83 1019.0
20260510082006 10 51 11.3 30.6 0.00 0.00 0.00 83 1019.0
20260510080004 10 53 6.4 29.0 0.00 0.00 0.00 83 1019.0
20260510075004 10 52 9.7 29.0 0.00 0.00 0.00 84 1018.9
20260510074004 10 52 9.7 24.1 0.00 0.00 0.00 85 1018.9
20260510073005 10 52 6.4 25.7 0.00 0.00 0.00 86 1018.9
20260510072005 10 47 6.4 24.1 0.00 0.00 0.00 86 1018.9
20260510071006 10 54 6.4 29.0 0.00 0.00 0.00 87 1018.9
20260510070005 10 51 9.7 24.1 0.00 0.00 0.00 88 1018.7
20260510065006 10 49 9.7 30.6 0.00 0.00 0.00 89 1018.7
20260510064006 10 53 6.4 24.1 0.00 0.00 0.00 90 1018.7
20260510063004 10 46 6.4 25.7 0.00 0.00 0.00 92 1018.6
20260510062006 9 43 6.4 20.9 0.00 0.00 0.00 93 1018.6
20260510060006 9 41 6.4 20.9 0.00 0.00 0.00 95 1018.5
20260510055005 9 34 6.4 20.9 0.00 0.00 0.00 95 1018.4
20260510053004 8 47 6.4 24.1 0.00 0.00 0.00 95 1018.3
20260510052005 8 44 6.4 19.3 0.00 0.00 0.00 96 1018.3
20260510051004 8 44 4.8 14.5 0.00 0.00 0.00 95 1018.4
20260510050005 8 48 6.4 16.1 0.00 0.00 0.00 95 1018.4
20260510045005 7 51 6.4 16.1 0.00 0.00 0.00 95 1018.4
20260510043004 7 50 4.8 11.3 0.00 0.00 0.00 95 1018.6
20260510042006 7 45 1.6 9.7 0.00 0.00 0.00 95 1018.7
20260510041005 7 29 1.6 6.4 0.00 0.00 0.00 95 1018.6
20260510040006 7 39 1.6 9.7 0.00 0.00 0.00 95 1018.7
20260510034005 7 49 4.8 9.7 0.00 0.00 0.00 94 1018.7
20260510032005 7 48 1.6 6.4 0.00 0.00 0.00 94 1019.0
20260510031004 8 40 1.6 6.4 0.00 0.00 0.00 94 1019.0
20260510030005 8 34 1.6 6.4 0.00 0.00 0.00 94 1019.0
20260510025004 8 0 0.0 6.4 0.00 0.00 0.00 94 1019.3
20260510024004 8 27 1.6 9.7 0.00 0.00 0.00 93 1019.2
20260510023006 8 32 1.6 6.4 0.00 0.00 0.00 93 1019.2
20260510022005 8 32 1.6 9.7 0.00 0.00 0.00 93 1019.1
20260510021006 8 40 4.8 14.5 0.00 0.00 0.00 94 1019.1
20260510020006 8 39 6.4 25.7 0.00 0.00 0.00 94 1019.1
20260510014005 8 39 1.6 16.1 0.00 0.00 0.00 94 1019.2
20260510013004 8 0 0.0 6.4 0.00 0.00 0.00 93 1019.3
20260510012005 8 0 0.0 4.8 0.00 0.00 0.00 93 1019.2
20260510011004 9 0 0.0 6.4 0.00 0.00 0.00 93 1019.1
20260510010005 9 67 1.6 6.4 0.00 0.00 0.00 94 1019.1
20260510005005 9 48 1.6 9.7 0.00 0.00 0.00 94 1019.2
20260510004006 9 47 4.8 9.7 0.00 0.00 0.00 94 1019.1
20260510003005 9 45 4.8 11.3 0.00 0.00 0.00 94 1019.0
20260510002005 9 37 4.8 9.7 0.00 0.00 0.00 94 1019.1
20260510001004 9 36 1.6 16.1 0.00 0.00 0.00 94 1019.2
20260509235005 9 34 4.8 14.5 0.00 0.00 0.00 94 1019.3
20260509234005 9 50 4.8 11.3 0.00 0.00 0.00 94 1019.4
20260509233005 9 51 4.8 11.3 0.00 0.00 0.00 94 1019.5
20260509232005 9 52 4.8 11.3 0.00 0.00 0.00 94 1019.6
20260509231005 9 57 4.8 14.5 0.00 0.00 0.00 94 1019.7
20260509230005 9 54 4.8 14.5 0.00 0.00 0.00 94 1019.5
20260509225005 9 47 4.8 6.4 0.00 0.00 0.00 93 1019.4
20260509223004 9 54 4.8 16.1 0.00 0.00 0.00 93 1019.2
20260509222004 9 54 4.8 11.3 0.00 0.00 0.00 92 1019.2
20260509221005 9 62 1.6 6.4 0.00 0.00 0.00 91 1019.3
20260509220006 10 57 4.8 11.3 0.00 0.00 0.00 91 1019.0
20260509215005 10 50 4.8 9.7 0.00 0.00 0.00 90 1019.0
20260509214004 10 68 1.6 6.4 0.00 0.00 0.00 89 1019.0
20260509213004 10 63 1.6 14.5 0.00 0.00 0.00 89 1019.0
20260509212004 10 56 1.6 6.4 0.00 0.00 0.00 87 1019.0
20260509211005 10 55 1.6 9.7 0.00 0.00 0.00 85 1018.7
20260509210004 10 62 4.8 11.3 0.00 0.00 0.00 84 1018.7
20260509205005 10 58 4.8 16.1 0.00 0.00 0.00 82 1018.7
20260509204005 11 58 4.8 9.7 0.00 0.00 0.00 80 1018.8
20260509203004 11 61 1.6 6.4 0.00 0.00 0.00 78 1018.8
20260509202005 11 56 1.6 6.4 0.00 0.00 0.00 77 1018.7
20260509201004 11 0 0.0 4.8 0.00 0.00 0.00 75 1018.8
20260509200004 12 0 0.0 4.8 0.00 0.00 0.00 73 1018.8
20260509195004 12 58 1.6 9.7 0.00 0.00 0.00 71 1018.6
20260509194005 12 56 1.6 6.4 0.00 0.00 0.00 68 1018.6
20260509193004 13 63 1.6 6.4 0.00 0.00 0.00 67 1018.3
20260509192005 13 63 1.6 6.4 0.00 0.00 0.00 64 1018.3
20260509191004 13 67 1.6 11.3 0.00 0.00 0.00 62 1018.2
20260509185004 15 70 1.6 11.3 0.00 0.00 0.00 60 1017.9
20260509184005 15 82 1.6 6.4 0.00 0.00 0.00 58 1017.9
20260509183004 15 69 1.6 9.7 0.00 0.00 0.00 56 1017.8
20260509182004 15 69 1.6 9.7 0.00 0.00 0.00 54 1017.9
20260509181004 16 55 1.6 14.5 0.00 0.00 0.00 53 1018.0
20260509180004 16 66 1.6 19.3 0.00 0.00 0.00 52 1018.0
20260509175004 16 56 4.8 19.3 0.00 0.00 0.00 52 1018.1
20260509174004 16 58 4.8 20.9 0.00 0.00 0.00 51 1018.2
20260509173004 16 62 4.8 19.3 0.00 0.00 0.00 50 1018.0
20260509172005 16 54 4.8 19.3 0.00 0.00 0.00 49 1018.0
20260509171004 17 62 1.6 11.3 0.00 0.00 0.00 48 1018.1
20260509170004 17 66 4.8 14.5 0.00 0.00 0.00 47 1018.1
20260509165005 18 62 4.8 20.9 0.00 0.00 0.00 46 1018.1
20260509164004 18 54 6.4 16.1 0.00 0.00 0.00 46 1018.0
20260509163004 18 59 6.4 19.3 0.00 0.00 0.00 45 1018.0
20260509162005 18 53 6.4 20.9 0.00 0.00 0.00 44 1018.0
20260509161004 18 50 6.4 16.1 0.00 0.00 0.00 44 1017.7
20260509160004 19 69 4.8 20.9 0.00 0.00 0.00 42 1017.6
20260509155005 19 56 6.4 24.1 0.00 0.00 0.00 42 1017.5
20260509154004 20 76 4.8 19.3 0.00 0.00 0.00 41 1017.6